Findlay, OH

1:51 PM EDT on April 29, 2017 (GMT -0400)
Findlay

Weather History for KFDY - July, 2013

Change the Weather History Date:

Monday, July 22, 2013

  Actual Average Record
Temperature  
Mean Temperature 70 °F -  
Max Temperature 75 °F 81 °F 98 °F (1952)
Min Temperature 66 °F 63 °F 51 °F (2000)
Cooling Degree Days 6    
Growing Degree Days 20 (Base 50)    
Moisture  
Dew Point 67 °F    
Average Humidity 87    
Maximum Humidity 94    
Minimum Humidity 67    
Precipitation  
Precipitation 0.24 in - - ()
Sea Level Pressure  
Sea Level Pressure 29.85 in    
Wind  
Wind Speed 6 mph (NE)    
Max Wind Speed 10 mph    
Max Gust Speed -    
Visibility 7 miles    
Events Rain    
Averages and records for this station are not official NWS values.
T = Trace of Precipitation, MM = Missing Value Source: NWS Daily Summary

Daily Weather History Graph

Daily Weather History Graph

Search for Another Location

Airport or City:

Trip Planner

Search our weather history database for the weather conditions in past years. The results will help you decide how hot, cold, wet, or windy it might be!

Date:

Astronomy

Jul. 22, 2013 Rise Set
Actual Time 6:21 AM EDT 9:00 PM EDT
Civil Twilight 5:49 AM EDT 9:32 PM EDT
Nautical Twilight 5:09 AM EDT 10:11 PM EDT
Astronomical Twilight 4:24 AM EDT 10:56 PM EDT
Moon 8:44 PM EDT (7/22) 6:17 AM EDT (7/22)
Length of Visible Light 15h 42m
Length of Day
14h 38m
Full, 100% of the Moon is Illuminated
Jul 22
Full
Jul 22
Full
Jul 29
Last Quarter
Aug 6
New
Aug 14
First Quarter

Hourly Weather History & Observations

Time (EDT) Temp. Dew Point Humidity Pressure Visibility Wind Dir Wind Speed Gust Speed Precip Events Conditions
12:53 AM 71.1 °F 64.9 °F 81% 29.91 in 10.0 mi East 8.1 mph - N/A   Clear
1:53 AM 70.0 °F 64.9 °F 84% 29.90 in 10.0 mi East 5.8 mph - N/A   Clear
2:53 AM 69.1 °F 64.9 °F 87% 29.89 in 10.0 mi East 5.8 mph - N/A   Clear
3:53 AM 70.0 °F 64.9 °F 84% 29.87 in 10.0 mi East 6.9 mph - N/A   Partly Cloudy
4:53 AM 70.0 °F 64.9 °F 84% 29.85 in 10.0 mi East 8.1 mph - N/A   Clear
5:53 AM 70.0 °F 64.9 °F 84% 29.86 in 10.0 mi East 5.8 mph - N/A   Clear
6:53 AM 70.0 °F 66.0 °F 87% 29.86 in 10.0 mi East 8.1 mph - N/A   Overcast
7:53 AM 69.1 °F 66.9 °F 93% 29.85 in 6.0 mi East 5.8 mph - 0.01 in Rain Light Rain
8:46 AM 69.8 °F 66.2 °F 88% 29.88 in 4.0 mi NW 5.8 mph - 0.01 in Rain Light Rain
8:53 AM 70.0 °F 66.9 °F 90% 29.86 in 5.0 mi WNW 6.9 mph - 0.01 in Rain Light Rain
9:07 AM 69.8 °F 66.2 °F 88% 29.89 in 4.0 mi NW 5.8 mph - 0.00 in Rain Light Rain
9:23 AM 69.8 °F 66.2 °F 88% 29.89 in 2.0 mi NNW 5.8 mph - 0.04 in Rain Rain
9:53 AM 69.1 °F 66.9 °F 93% 29.88 in 2.0 mi NNW 3.5 mph - 0.11 in Rain Light Rain
9:58 AM 69.8 °F 66.2 °F 88% 29.89 in 1.8 mi NNW 3.5 mph - 0.03 in Rain Light Rain
10:17 AM 69.8 °F 66.2 °F 88% 29.89 in 2.0 mi NNW 6.9 mph - 0.10 in Rain Light Rain
10:24 AM 69.8 °F 68.0 °F 94% 29.88 in 3.0 mi North 6.9 mph - 0.10 in Rain Light Rain
10:53 AM 70.0 °F 68.0 °F 93% 29.86 in 4.0 mi ENE 5.8 mph - 0.10 in Rain Light Rain
11:07 AM 71.6 °F 68.0 °F 88% 29.88 in 4.0 mi NE 5.8 mph - 0.00 in Rain Light Rain
11:20 AM 71.6 °F 68.0 °F 88% 29.88 in 5.0 mi NNE 4.6 mph - 0.00 in Rain Light Rain
11:27 AM 71.6 °F 68.0 °F 88% 29.88 in 5.0 mi North 4.6 mph - 0.00 in Rain Light Rain
11:36 AM 71.6 °F 68.0 °F 88% 29.88 in 5.0 mi NE 6.9 mph - 0.00 in Rain Light Rain
11:50 AM 71.6 °F 69.8 °F 94% 29.87 in 4.0 mi NE 10.4 mph - 0.00 in   Overcast
11:53 AM 71.1 °F 69.1 °F 93% 29.85 in 4.0 mi ENE 9.2 mph - 0.00 in   Overcast
12:10 PM 71.6 °F 68.0 °F 88% 29.87 in 6.0 mi NE 3.5 mph - N/A   Overcast
12:53 PM 71.1 °F 68.0 °F 90% 29.85 in 5.0 mi ENE 5.8 mph - 0.00 in Rain Light Rain
1:53 PM 71.1 °F 68.0 °F 90% 29.84 in 6.0 mi Calm Calm - 0.01 in   Overcast
2:31 PM 71.6 °F 69.8 °F 94% 29.85 in 7.0 mi ENE 4.6 mph - N/A   Overcast
2:53 PM 72.0 °F 69.1 °F 91% 29.82 in 7.0 mi East 4.6 mph - N/A   Overcast
3:26 PM 71.6 °F 69.8 °F 94% 29.83 in 7.0 mi NE 5.8 mph - N/A   Overcast
3:42 PM 73.4 °F 69.8 °F 88% 29.83 in 7.0 mi East 6.9 mph - N/A   Overcast
3:53 PM 73.0 °F 68.0 °F 84% 29.81 in 9.0 mi East 6.9 mph - N/A   Overcast
4:53 PM 73.9 °F 64.9 °F 73% 29.80 in 10.0 mi ESE 3.5 mph - N/A   Overcast
5:53 PM 75.0 °F 64.9 °F 71% 29.78 in 10.0 mi Calm Calm - N/A   Overcast
6:53 PM 75.9 °F 64.0 °F 67% 29.76 in 10.0 mi East 6.9 mph - N/A   Clear
7:53 PM 75.9 °F 64.9 °F 69% 29.76 in 10.0 mi Calm Calm - N/A   Clear
8:53 PM 73.0 °F 66.0 °F 79% 29.76 in 10.0 mi East 3.5 mph - N/A   Clear
9:53 PM 70.0 °F 66.0 °F 87% 29.78 in 10.0 mi Calm Calm - N/A   Clear
10:53 PM 66.9 °F 64.9 °F 93% 29.79 in 7.0 mi Calm Calm - N/A   Clear
11:53 PM 66.0 °F 64.0 °F 93% 29.79 in 7.0 mi Calm Calm - N/A   Clear